EW3662 Weather Reports


Display with metric or nautical units.
time (UTC)temp
F
wind
direction
speed
MPH
gust
MPH
rain 1hr
in
rain 24hr
in
rain mn
in
humidity
%
barometer
mb
20260508130246 47 277 0.0 0.0 0.01 0.03 0.03 87 1016.5
20260508130016 47 276 0.0 1.0 0.01 0.03 0.03 86 1016.5
20260508125246 47 276 0.0 1.0 0.01 0.03 0.03 86 1016.5
20260508124747 46 276 0.0 3.0 0.01 0.03 0.03 85 1016.5
20260508124246 46 276 1.0 3.0 0.01 0.03 0.03 85 1016.4
20260508123746 46 0 1.0 3.0 0.02 0.03 0.03 85 1016.4
20260508123247 46 0 1.0 4.0 0.02 0.03 0.03 85 1016.2
20260508122745 46 286 1.0 4.0 0.02 0.03 0.03 85 1016.5
20260508122246 46 286 1.0 5.0 0.02 0.03 0.03 85 1016.4
20260508121746 47 0 3.0 8.0 0.02 0.03 0.03 84 1016.5
20260508121247 47 0 5.0 10.0 0.02 0.03 0.03 84 1016.7
20260508120746 47 0 7.0 14.0 0.02 0.03 0.03 84 1016.7
20260508120245 47 0 9.0 16.0 0.01 0.02 0.02 84 1017.1
20260508115745 47 0 10.0 18.0 0.01 0.02 0.02 84 1017.2
20260508115247 47 0 12.0 22.0 0.01 0.02 0.02 83 1017.3
20260508114746 47 274 10.0 22.0 0.01 0.02 0.02 83 1017.5
20260508114247 47 0 8.0 18.0 0.01 0.02 0.02 84 1017.4
20260508113747 47 0 7.0 15.0 0.00 0.01 0.01 85 1017.4
20260508113247 47 0 4.0 11.0 0.00 0.01 0.01 86 1017.4
20260508112747 46 0 3.0 6.0 0.00 0.01 0.01 87 1017.1
20260508112517 46 0 3.0 5.0 0.00 0.01 0.01 86 1016.9
20260508111745 46 0 3.0 4.0 0.00 0.01 0.01 85 1016.7
20260508111248 46 0 3.0 4.0 0.00 0.01 0.01 84 1016.6
20260508110747 46 0 2.0 5.0 0.00 0.01 0.01 83 1016.2
20260508110246 46 0 3.0 5.0 0.00 0.01 0.01 82 1016.0
20260508105746 46 0 3.0 6.0 0.00 0.01 0.01 82 1016.0
20260508105517 46 0 3.0 6.0 0.00 0.01 0.01 82 1015.9
20260508104746 47 0 1.0 6.0 0.00 0.01 0.01 81 1015.9
20260508104246 47 0 1.0 4.0 0.00 0.01 0.01 82 1015.9
20260508104017 47 0 3.0 6.0 0.00 0.01 0.01 82 1015.9
20260508103245 47 0 3.0 7.0 0.01 0.01 0.01 81 1015.8
20260508102746 47 0 3.0 9.0 0.01 0.01 0.01 81 1015.8
20260508102523 47 0 5.0 11.0 0.01 0.01 0.01 81 1015.9
20260508102246 47 0 4.0 9.0 0.01 0.01 0.01 81 1015.9
20260508101248 47 0 4.0 11.0 0.01 0.01 0.01 81 1016.0
20260508100747 47 0 3.0 7.0 0.01 0.01 0.01 83 1015.9
20260508100247 47 0 3.0 6.0 0.01 0.01 0.01 84 1015.9
20260508100016 47 0 1.0 6.0 0.01 0.01 0.01 85 1015.9
20260508095246 47 0 0.0 2.0 0.01 0.01 0.01 86 1015.9
20260508094747 47 0 0.0 0.0 0.01 0.01 0.01 87 1015.9
20260508094246 47 0 0.0 2.0 0.01 0.01 0.01 87 1015.9
20260508093747 47 0 0.0 2.0 0.01 0.01 0.01 87 1015.8
20260508093246 47 0 1.0 5.0 0.00 0.00 0.00 87 1016.0
20260508092745 47 0 2.0 5.0 0.00 0.00 0.00 86 1015.8
20260508092247 47 0 1.0 5.0 0.00 0.00 0.00 86 1015.9
20260508091746 47 0 0.0 2.0 0.00 0.00 0.00 87 1015.9
20260508091519 47 0 1.0 3.0 0.00 0.00 0.00 86 1015.8
20260508090747 47 0 1.0 3.0 0.00 0.00 0.00 86 1015.8
20260508090247 47 0 0.0 0.0 0.00 0.00 0.00 86 1015.8
20260508085748 47 0 0.0 0.0 0.00 0.00 0.00 86 1015.7
20260508085248 47 0 0.0 0.0 0.00 0.00 0.00 86 1015.6
20260508084746 47 0 0.0 2.0 0.00 0.00 0.00 86 1015.3
20260508084245 47 0 1.0 4.0 0.00 0.00 0.00 85 1015.2
20260508083745 48 0 1.0 4.0 0.00 0.00 0.00 85 1015.2
20260508083243 48 0 0.0 3.0 0.00 0.00 0.00 85 1015.2
20260508082741 47 0 0.0 3.0 0.00 0.00 0.00 85 1015.2
20260508082242 47 0 0.0 2.0 0.00 0.00 0.00 85 1015.1
20260508081739 48 0 1.0 2.0 0.00 0.00 0.00 85 1015.1
20260508081237 48 0 0.0 2.0 0.00 0.00 0.00 84 1015.0
20260508080739 48 0 1.0 5.0 0.00 0.00 0.00 84 1015.0
20260508080236 48 0 2.0 5.0 0.00 0.00 0.00 84 1015.0
20260508075735 48 0 1.0 5.0 0.00 0.00 0.00 83 1015.1
20260508075235 49 0 2.0 5.0 0.00 0.00 0.00 83 1015.2
20260508074733 49 0 2.0 5.0 0.00 0.00 0.00 82 1015.3
20260508074504 49 0 1.0 5.0 0.00 0.00 0.00 83 1015.6
20260508073731 49 0 3.0 8.0 0.00 0.00 0.00 82 1015.8
20260508073501 49 0 4.0 8.0 0.00 0.00 0.00 82 1016.2
20260508072727 50 0 5.0 8.0 0.00 0.00 0.00 80 1016.2
20260508072228 50 0 3.0 8.0 0.00 0.00 0.00 80 1016.5
20260508071726 50 0 2.0 7.0 0.00 0.00 0.00 79 1016.4
20260508071227 50 294 1.0 4.0 0.00 0.00 0.00 78 1016.2
20260508070725 50 0 0.0 3.0 0.00 0.00 0.00 77 1016.0
20260508070221 50 0 2.0 7.0 0.00 0.00 0.00 77 1015.9
20260508065722 50 0 4.0 8.0 0.00 0.00 0.00 77 1016.2
20260508065220 50 0 5.0 9.0 0.00 0.00 0.00 76 1016.2
20260508064719 51 0 5.0 9.0 0.00 0.00 0.00 76 1016.4
20260508064215 51 0 5.0 8.0 0.00 0.00 0.00 76 1016.4
20260508063717 51 0 3.0 7.0 0.00 0.00 0.00 76 1016.1
20260508063445 51 0 1.0 6.0 0.00 0.00 0.00 76 1016.1
20260508062945 51 0 0.0 2.0 0.00 0.00 0.00 75 1015.8
20260508062214 51 0 1.0 3.0 0.00 0.00 0.00 75 1016.0
20260508061719 52 0 1.0 3.0 0.00 0.00 0.00 76 1015.9
20260508061715 51 0 2.0 3.0 0.00 0.00 0.00 76 1016.0
20260508060720 52 0 1.0 3.0 0.00 0.00 0.00 73 1015.7
20260508060715 52 0 1.0 3.0 0.00 0.00 0.00 74 1015.6
20260508055712 52 0 1.0 3.0 0.00 0.00 0.00 72 1015.7
20260508055209 52 0 1.0 3.0 0.00 0.00 0.00 72 1015.7
20260508054710 53 0 1.0 5.0 0.00 0.00 0.00 71 1015.8
20260508054209 53 0 1.0 5.0 0.00 0.00 0.00 71 1015.9
20260508053707 53 0 2.0 6.0 0.00 0.00 0.00 70 1016.0
20260508053205 53 0 1.0 6.0 0.00 0.00 0.00 70 1016.0
20260508052705 53 0 0.0 3.0 0.00 0.00 0.00 70 1016.0
20260508052205 53 0 1.0 6.0 0.00 0.00 0.00 70 1015.9
20260508051932 54 0 2.0 6.0 0.00 0.00 0.00 69 1015.8
20260508051434 54 0 2.0 5.0 0.00 0.00 0.00 69 1015.7
20260508050701 54 0 3.0 9.0 0.00 0.00 0.00 67 1015.6
20260508050208 54 0 4.0 7.0 0.00 0.00 0.00 67 1015.3
20260508050202 54 0 4.0 9.0 0.00 0.00 0.00 67 1015.4
20260508045202 54 0 5.0 11.0 0.00 0.00 0.00 65 1015.2
20260508044701 54 0 5.0 11.0 0.00 0.00 0.00 66 1015.1
20260508044202 54 0 5.0 11.0 0.00 0.00 0.00 67 1015.0
20260508043935 54 0 5.0 10.0 0.00 0.00 0.00 68 1014.9
20260508043202 54 0 4.0 9.0 0.00 0.00 0.00 70 1015.0
20260508042659 55 0 2.0 6.0 0.00 0.00 0.00 70 1014.9
20260508042200 55 0 2.0 5.0 0.00 0.00 0.00 69 1014.4
20260508041659 56 0 3.0 6.0 0.00 0.00 0.00 67 1014.1
20260508041201 56 0 3.0 11.0 0.00 0.00 0.00 66 1014.2
20260508040657 56 0 3.0 11.0 0.00 0.00 0.00 66 1014.4
20260508040158 56 0 5.0 15.0 0.00 0.00 0.00 62 1014.1
20260508035657 56 0 7.0 15.0 0.00 0.00 0.00 61 1014.4
20260508035158 56 0 7.0 13.0 0.00 0.00 0.00 60 1014.4
20260508034658 56 0 7.0 13.0 0.00 0.00 0.00 59 1014.2
20260508034158 56 0 8.0 13.0 0.00 0.00 0.00 59 1013.9
20260508033658 56 0 9.0 16.0 0.00 0.00 0.00 60 1013.8
20260508033158 56 0 9.0 16.0 0.00 0.00 0.00 60 1013.8
20260508032658 56 0 9.0 15.0 0.00 0.00 0.00 60 1013.4
20260508032428 56 0 10.0 18.0 0.00 0.00 0.00 61 1013.5
20260508031655 55 0 10.0 18.0 0.00 0.00 0.00 63 1013.5
20260508031155 55 0 10.0 17.0 0.00 0.00 0.00 65 1013.6
20260508030656 54 0 8.0 17.0 0.00 0.00 0.00 67 1013.7
20260508030156 54 0 6.0 13.0 0.00 0.00 0.00 67 1013.5
20260508025653 55 0 6.0 12.0 0.00 0.00 0.00 67 1013.5
20260508025154 55 0 7.0 13.0 0.00 0.00 0.00 65 1013.4
20260508024652 55 0 8.0 13.0 0.00 0.00 0.00 64 1013.1
20260508024153 55 0 8.0 14.0 0.00 0.00 0.00 63 1013.1
20260508023649 55 0 8.0 16.0 0.00 0.00 0.00 63 1013.2
20260508023150 55 0 8.0 16.0 0.00 0.00 0.00 64 1013.4
20260508022650 55 0 7.0 14.0 0.00 0.00 0.00 65 1013.4
20260508022150 55 0 7.0 14.0 0.00 0.00 0.00 66 1013.4
20260508021650 55 0 7.0 12.0 0.00 0.00 0.00 66 1013.4
20260508021151 55 0 7.0 14.0 0.00 0.00 0.00 65 1013.7
20260508020649 56 0 8.0 14.0 0.00 0.00 0.00 63 1013.5
20260508020150 56 0 9.0 19.0 0.00 0.00 0.00 62 1013.4
20260508015650 57 0 13.0 30.0 0.00 0.00 0.00 61 1013.2
20260508015150 58 0 14.0 32.0 0.00 0.00 0.00 58 1013.4
20260508014649 60 0 11.0 32.0 0.00 0.00 0.00 51 1013.4
20260508014147 60 0 8.0 15.0 0.00 0.00 0.00 48 1013.2
20260508013648 61 0 8.0 13.0 0.00 0.00 0.00 47 1013.0
20260508013147 61 0 8.0 14.0 0.00 0.00 0.00 46 1012.8
20260508012645 61 0 7.0 14.0 0.00 0.00 0.00 46 1012.6
20260508012147 61 0 6.0 12.0 0.00 0.00 0.00 46 1012.6
20260508011913 61 0 6.0 11.0 0.00 0.00 0.00 47 1012.6
20260508011143 62 0 6.0 11.0 0.00 0.00 0.00 46 1012.6
20260508010641 62 0 7.0 15.0 0.00 0.00 0.00 45 1012.4
20260508010141 63 0 8.0 15.0 0.00 0.00 0.00 44 1012.4
20260508005641 63 0 6.0 12.0 0.00 0.00 0.00 43 1012.3
20260508005141 62 0 5.0 12.0 0.00 0.00 0.00 44 1012.4
20260508004639 61 0 6.0 12.0 0.00 0.00 0.00 45 1012.6
20260508004138 62 0 8.0 18.0 0.00 0.00 0.00 45 1012.4
20260508003637 62 0 11.0 35.0 0.00 0.00 0.00 43 1012.4
20260508003137 62 0 12.0 35.0 0.00 0.00 0.00 39 1011.5
20260508002638 62 0 10.0 20.0 0.00 0.00 0.00 43 1012.3
20260508002137 62 0 9.0 20.0 0.00 0.00 0.00 42 1012.4
20260508001635 62 0 8.0 14.0 0.00 0.00 0.00 43 1012.6
20260508001136 63 0 9.0 17.0 0.00 0.00 0.00 42 1012.6
20260508000906 63 0 10.0 19.0 0.00 0.00 0.00 41 1012.6
20260508000136 63 0 11.0 20.0 0.00 0.00 0.00 40 1012.6
20260507235636 64 0 11.0 20.0 0.00 0.00 0.00 39 1012.4
20260507235136 64 0 12.0 27.0 0.00 0.00 0.00 38 1012.4
20260507234905 64 0 15.0 27.0 0.00 0.00 0.00 37 1012.4
20260507234135 65 0 14.0 28.0 0.00 0.00 0.00 36 1012.4
20260507233635 65 0 10.0 28.0 0.00 0.00 0.00 38 1012.3
20260507233135 66 0 8.0 14.0 0.00 0.00 0.00 40 1012.2
20260507232637 66 0 7.0 13.0 0.00 0.00 0.00 39 1012.1
20260507232135 66 0 7.0 13.0 0.00 0.00 0.00 38 1012.1
20260507231637 67 0 7.0 13.0 0.00 0.00 0.00 39 1012.0
20260507231409 67 0 7.0 12.0 0.00 0.00 0.00 37 1011.9
20260507230633 67 0 8.0 14.0 0.00 0.00 0.00 37 1011.7
20260507230133 67 0 10.0 15.0 0.00 0.00 0.00 33 1011.9
20260507225633 68 0 9.0 15.0 0.00 0.00 0.00 32 1011.6
20260507225133 68 0 9.0 17.0 0.00 0.00 0.00 31 1011.6
20260507224635 68 0 10.0 19.0 0.00 0.00 0.00 30 1011.7
20260507224133 68 0 11.0 20.0 0.00 0.00 0.00 31 1011.7
20260507223905 70 0 11.0 20.0 0.00 0.00 0.00 29 1011.6
20260507223133 71 0 12.0 19.0 0.00 0.00 0.00 28 1011.6
20260507222633 72 0 13.0 23.0 0.00 0.00 0.00 29 1011.6
20260507222140 72 0 13.0 21.0 0.00 0.00 0.00 29 1011.6
20260507222135 72 0 13.0 23.0 0.00 0.00 0.00 28 1011.6
20260507221133 72 0 12.0 22.0 0.00 0.00 0.00 30 1011.6
20260507220633 72 0 12.0 22.0 0.00 0.00 0.00 27 1011.6
20260507220134 72 0 13.0 21.0 0.00 0.00 0.00 28 1011.7
20260507215634 72 0 14.0 23.0 0.00 0.00 0.00 28 1011.7
20260507215133 71 0 13.0 23.0 0.00 0.00 0.00 27 1011.7
20260507214630 72 0 12.0 21.0 0.00 0.00 0.00 28 1011.9
20260507214130 71 0 11.0 21.0 0.00 0.00 0.00 28 1012.1
20260507213629 72 0 11.0 20.0 0.00 0.00 0.00 28 1012.0
20260507213131 72 0 10.0 22.0 0.00 0.00 0.00 28 1012.2
20260507212630 72 0 7.0 22.0 0.00 0.00 0.00 30 1012.2
20260507212130 71 0 9.0 22.0 0.00 0.00 0.00 29 1012.4
20260507211900 71 0 12.0 22.0 0.00 0.00 0.00 29 1012.4
20260507211129 71 0 13.0 26.0 0.00 0.00 0.00 29 1012.7
20260507210636 71 0 13.0 23.0 0.00 0.00 0.00 27 1012.8
20260507210632 71 0 13.0 26.0 0.00 0.00 0.00 29 1012.7
20260507205628 71 0 11.0 22.0 0.00 0.00 0.00 27 1012.8
20260507205128 72 0 9.0 17.0 0.00 0.00 0.00 30 1012.9
20260507204627 72 0 8.0 13.0 0.00 0.00 0.00 30 1012.9
20260507204128 71 0 8.0 13.0 0.00 0.00 0.00 31 1013.0
20260507203626 71 0 9.0 20.0 0.00 0.00 0.00 31 1013.0
20260507203126 71 0 9.0 20.0 0.00 0.00 0.00 33 1013.0
20260507202625 71 0 10.0 20.0 0.00 0.00 0.00 28 1013.1
20260507202126 71 0 11.0 20.0 0.00 0.00 0.00 32 1013.2
20260507201855 70 0 11.0 19.0 0.00 0.00 0.00 30 1013.2
20260507201125 71 0 12.0 19.0 0.00 0.00 0.00 31 1013.4
20260507200625 71 0 10.0 18.0 0.00 0.00 0.00 31 1013.4
20260507200355 71 0 11.0 20.0 0.00 0.00 0.00 32 1013.4
20260507195626 71 0 11.0 20.0 0.00 0.00 0.00 29 1013.5
20260507195126 71 0 8.0 15.0 0.00 0.00 0.00 30 1013.6
20260507194624 71 0 8.0 15.0 0.00 0.00 0.00 29 1013.6
20260507194124 71 0 9.0 15.0 0.00 0.01 0.00 33 1013.7
20260507193624 70 0 8.0 13.0 0.00 0.01 0.00 31 1013.7
20260507193355 70 0 8.0 18.0 0.00 0.01 0.00 29 1013.6
20260507192623 70 0 8.0 18.0 0.00 0.01 0.00 31 1013.7
20260507192123 70 0 5.0 15.0 0.00 0.01 0.00 30 1013.7
20260507191625 69 0 2.0 10.0 0.00 0.01 0.00 34 1013.8
20260507191124 69 0 2.0 6.0 0.00 0.01 0.00 37 1013.8
20260507190623 69 0 2.0 5.0 0.00 0.01 0.00 30 1013.9
20260507190124 69 0 2.0 5.0 0.00 0.01 0.00 33 1013.9
20260507185621 69 0 2.0 6.0 0.00 0.01 0.00 35 1014.1
20260507185122 68 0 1.0 6.0 0.00 0.01 0.00 31 1014.1
20260507184621 67 0 3.0 8.0 0.00 0.01 0.00 34 1014.1
20260507184121 67 0 6.0 9.0 0.00 0.01 0.00 35 1014.1
20260507183621 66 0 6.0 11.0 0.00 0.01 0.00 34 1014.2
20260507183121 66 0 5.0 11.0 0.00 0.01 0.00 34 1014.2
20260507182622 66 0 4.0 9.0 0.00 0.01 0.00 36 1014.4
20260507182122 66 0 3.0 9.0 0.00 0.01 0.00 35 1014.3
20260507181622 66 0 4.0 10.0 0.00 0.01 0.00 36 1014.3
20260507181122 66 0 5.0 10.0 0.00 0.02 0.00 36 1014.4
20260507180619 65 0 5.0 10.0 0.00 0.02 0.00 35 1014.4
20260507180119 64 0 5.0 9.0 0.00 0.03 0.00 36 1014.3
20260507175620 65 0 4.0 9.0 0.00 0.03 0.00 36 1014.4
20260507175121 65 225 5.0 10.0 0.00 0.04 0.00 35 1014.4
20260507174619 65 0 6.0 11.0 0.00 0.04 0.00 37 1014.4
20260507174119 65 0 6.0 11.0 0.00 0.05 0.00 36 1014.5
20260507173618 65 0 5.0 11.0 0.00 0.06 0.00 37 1014.5
20260507173120 64 0 6.0 11.0 0.00 0.07 0.00 39 1014.7
20260507172850 63 0 6.0 10.0 0.00 0.08 0.00 41 1014.7
20260507172118 62 0 5.0 9.0 0.00 0.09 0.00 41 1014.9
20260507171618 61 0 5.0 9.0 0.00 0.10 0.00 44 1015.0
20260507171117 59 0 4.0 9.0 0.00 0.11 0.00 50 1015.1
20260507170617 58 0 4.0 8.0 0.00 0.12 0.00 50 1015.2
20260507170351 57 0 3.0 7.0 0.00 0.13 0.00 55 1015.2
20260507165617 55 0 1.0 5.0 0.00 0.15 0.00 56 1015.4
20260507165119 54 0 0.0 3.0 0.00 0.16 0.00 59 1015.6
20260507164849 53 0 0.0 0.0 0.00 0.16 0.00 63 1015.7
20260507164118 53 0 0.0 0.0 0.00 0.17 0.00 62 1015.7
20260507163616 52 0 0.0 0.0 0.00 0.18 0.00 63 1015.7
20260507163115 52 0 0.0 0.0 0.00 0.19 0.00 66 1015.6
20260507162845 51 0 0.0 1.0 0.00 0.20 0.00 65 1015.6
20260507162114 51 0 0.0 1.0 0.00 0.22 0.00 67 1015.6
20260507161614 50 0 0.0 1.0 0.00 0.23 0.00 70 1015.7
20260507161109 50 0 0.0 1.0 0.00 0.24 0.00 68 1015.7
20260507160609 49 0 0.0 0.0 0.00 0.25 0.00 70 1015.7
20260507160109 49 0 0.0 4.0 0.00 0.26 0.00 70 1015.8
20260507155607 49 0 1.0 4.0 0.00 0.26 0.00 71 1015.7
20260507155112 48 0 0.0 2.0 0.00 0.28 0.00 71 1015.8
20260507155107 49 0 1.0 3.0 0.00 0.27 0.00 72 1015.8
20260507154105 48 304 0.0 2.0 0.00 0.29 0.00 71 1015.8
20260507153605 48 0 0.0 0.0 0.00 0.30 0.00 72 1015.9
20260507153102 47 0 0.0 0.0 0.00 0.31 0.00 73 1015.9
20260507152603 47 0 0.0 0.0 0.00 0.32 0.00 73 1015.9
20260507152102 46 0 1.0 5.0 0.00 0.33 0.00 76 1015.9
20260507151559 46 0 1.0 5.0 0.00 0.34 0.00 75 1015.9
20260507151059 45 0 0.0 5.0 0.00 0.34 0.00 76 1016.0
20260507150559 45 0 0.0 2.0 0.00 0.35 0.00 78 1016.0
20260507150059 44 0 0.0 3.0 0.00 0.36 0.00 78 1016.0
20260507145600 44 0 1.0 3.0 0.00 0.36 0.00 80 1015.9
20260507145057 43 0 1.0 3.0 0.00 0.37 0.00 79 1015.9
20260507144825 43 0 0.0 2.0 0.00 0.37 0.00 78 1015.8
20260507144054 42 118 0.0 2.0 0.00 0.37 0.00 78 1015.8
20260507143554 42 118 1.0 2.0 0.00 0.38 0.00 80 1015.8
20260507143055 42 0 1.0 3.0 0.00 0.38 0.00 79 1015.7
20260507142551 41 0 0.0 3.0 0.00 0.38 0.00 80 1015.8
20260507142322 40 0 0.0 0.0 0.00 0.38 0.00 80 1015.7
20260507141550 40 0 0.0 2.0 0.00 0.39 0.00 81 1015.7
20260507141048 40 0 0.0 2.0 0.00 0.39 0.00 82 1015.8
20260507140547 39 61 0.0 2.0 0.00 0.39 0.00 82 1015.8
20260507140047 39 0 0.0 0.0 0.00 0.39 0.00 83 1015.7
20260507135546 38 0 0.0 2.0 0.00 0.39 0.00 84 1015.8
20260507135045 38 0 1.0 4.0 0.00 0.39 0.00 86 1015.8
20260507134546 38 0 1.0 6.0 0.00 0.39 0.00 86 1015.8
20260507134316 37 0 2.0 6.0 0.00 0.40 0.00 87 1015.8
20260507133545 37 0 1.0 4.0 0.00 0.40 0.00 89 1015.7
20260507133045 36 92 0.0 2.0 0.00 0.40 0.00 90 1015.7
20260507132546 35 0 0.0 2.0 0.00 0.40 0.00 91 1015.6
20260507132045 35 0 0.0 2.0 0.00 0.40 0.00 91 1015.6
20260507131547 34 116 0.0 0.0 0.00 0.40 0.00 91 1015.4
20260507131046 34 117 0.0 2.0 0.00 0.40 0.00 91 1015.3